Ludington, MI

7:58 AM EST on February 14, 2016 (GMT -0500)
Mason County

Weather History for KLDM - December, 2013

Change the Weather History Date:

Wednesday, December 11, 2013

  Actual Average (KMBL) Record (KMBL)
Temperature  
Mean Temperature 12 °F -  
Max Temperature 16 °F 34 °F - (-1)
Min Temperature 9 °F 23 °F - (-1)
Degree Days  
Heating Degree Days 52    
Moisture  
Dew Point 6 °F    
Average Humidity 73    
Maximum Humidity 81    
Minimum Humidity 66    
Precipitation  
Precipitation 0.00 in - - ()
Sea Level Pressure  
Sea Level Pressure 30.31 in    
Wind  
Wind Speed 10 mph (WNW)    
Max Wind Speed 14 mph    
Max Gust Speed 25 mph    
Visibility 6 miles    
Events Snow    
Averages and records for this station are not official NWS values.
T = Trace of Precipitation, MM = Missing Value Source: NWS Daily Summary

Daily Weather History Graph

Daily Weather History Graph

Search for Another Location

Airport or City:

Trip Planner

Search our weather history database for the weather conditions in past years. The results will help you decide how hot, cold, wet, or windy it might be!

Date:

Astronomy

Dec. 11, 2013 Rise Set
Actual Time 8:10 AM EST 5:07 PM EST
Civil Twilight 7:37 AM EST 5:40 PM EST
Nautical Twilight 7:01 AM EST 6:17 PM EST
Astronomical Twilight 6:26 AM EST 6:52 PM EST
Moon 1:49 PM EST (12/11) 2:21 AM EST (12/11)
Length of Visible Light 10h 03m
Length of Day
8h 57m
Waxing Gibbous, 71% of the Moon is Illuminated
Dec 11
Waxing Gibbous
Dec 17
Full
Dec 25
Last Quarter
Jan 1
New
Jan 7
First Quarter

Hourly Weather History & Observations

Time (EST) Temp. Windchill Dew Point Humidity Pressure Visibility Wind Dir Wind Speed Gust Speed Precip Events Conditions
12:15 AM 16.7 °F 6.2 °F 8.1 °F 69% 30.15 in 10.0 mi WNW 8.1 mph 17.3 mph N/A   Overcast
12:35 AM 16.7 °F 5.3 °F 8.6 °F 70% 30.16 in 10.0 mi West 9.2 mph 17.3 mph N/A   Overcast
12:55 AM 16.7 °F 6.2 °F 8.6 °F 70% 30.16 in 10.0 mi WNW 8.1 mph - N/A   Overcast
1:15 AM 16.7 °F 3.2 °F 9.0 °F 72% 30.17 in 10.0 mi WNW 12.7 mph 19.6 mph N/A   Overcast
1:35 AM 16.7 °F 3.8 °F 9.5 °F 73% 30.18 in 10.0 mi WNW 11.5 mph 21.9 mph N/A   Overcast
1:54 AM 16.7 °F 5.3 °F 9.1 °F 72% 30.18 in 10.0 mi West 9.2 mph 19.6 mph N/A   Overcast
2:15 AM 15.6 °F 3.2 °F 8.4 °F 73% 30.18 in 7.0 mi West 10.4 mph 18.4 mph N/A   Overcast
2:35 AM 15.6 °F 2.5 °F 9.5 °F 77% 30.19 in 4.0 mi WNW 11.5 mph 19.6 mph N/A Snow Light Snow
2:54 AM 15.6 °F 4.0 °F 9.7 °F 77% 30.20 in 4.0 mi WNW 9.2 mph 17.3 mph N/A Snow Light Snow
3:15 AM 14.7 °F 1.4 °F 8.8 °F 77% 30.20 in 4.0 mi WNW 11.5 mph - N/A Snow Light Snow
3:35 AM 15.3 °F 2.8 °F 9.9 °F 79% 30.20 in 2.5 mi WNW 10.4 mph 25.3 mph N/A Snow Light Snow
3:54 AM 15.6 °F 4.9 °F 10.4 °F 80% 30.20 in 3.0 mi West 8.1 mph 18.4 mph N/A Snow Light Snow
4:15 AM 15.6 °F 4.0 °F 10.8 °F 81% 30.20 in 2.0 mi WNW 9.2 mph - N/A Snow Light Snow
4:35 AM 15.4 °F 2.3 °F 10.4 °F 80% 30.20 in 3.0 mi WNW 11.5 mph 18.4 mph N/A Snow Light Snow
4:54 AM 14.7 °F 1.4 °F 9.0 °F 78% 30.20 in 4.0 mi WNW 11.5 mph 19.6 mph N/A Snow Light Snow
5:15 AM 14.4 °F 0.9 °F 8.6 °F 78% 30.20 in 3.0 mi WNW 11.5 mph 19.6 mph N/A Snow Light Snow
5:35 AM 14.4 °F 1.6 °F 9.3 °F 80% 30.20 in 3.0 mi WNW 10.4 mph - N/A Snow Light Snow
5:54 AM 14.4 °F 1.6 °F 8.6 °F 78% 30.20 in 3.0 mi WNW 10.4 mph 16.1 mph N/A Snow Light Snow
6:15 AM 14.4 °F 3.3 °F 8.6 °F 78% 30.21 in 4.0 mi WNW 8.1 mph 11.5 mph N/A Snow Light Snow
6:35 AM 14.4 °F 1.6 °F 7.5 °F 74% 30.22 in 7.0 mi WNW 10.4 mph 19.6 mph N/A Snow Light Snow
6:55 AM 14.4 °F 2.4 °F 8.1 °F 76% 30.23 in 5.0 mi WNW 9.2 mph 19.6 mph N/A Snow Light Snow
7:15 AM 14.4 °F 0.9 °F 7.9 °F 75% 30.24 in 7.0 mi WNW 11.5 mph 19.6 mph N/A Snow Light Snow
7:35 AM 14.4 °F -0.4 °F 7.2 °F 73% 30.25 in 7.0 mi WNW 13.8 mph 18.4 mph N/A Snow Light Snow
7:55 AM 14.4 °F 0.9 °F 7.2 °F 73% 30.26 in 10.0 mi NW 11.5 mph 19.6 mph N/A Snow Light Snow
9:00 AM 11.8 °F -2.3 °F 4.8 °F 73% 30.29 in 2.5 mi NW 11.5 mph 21.9 mph N/A Snow Light Snow
9:15 AM 12.0 °F -0.4 °F 4.1 °F 71% 30.29 in 5.0 mi NW 9.2 mph 18.4 mph N/A Snow Light Snow
9:34 AM 11.8 °F -2.3 °F 3.7 °F 70% 30.31 in 4.0 mi NW 11.5 mph 21.9 mph N/A Snow Light Snow
9:55 AM 11.8 °F -2.3 °F 3.4 °F 69% 30.32 in 7.0 mi NW 11.5 mph 20.7 mph N/A Snow Light Snow
10:15 AM 11.8 °F 0.3 °F 4.8 °F 73% 30.32 in 4.0 mi NW 8.1 mph 16.1 mph N/A Snow Light Snow
10:34 AM 11.8 °F -0.7 °F 5.4 °F 75% 30.32 in 1.5 mi NW 9.2 mph 17.3 mph N/A Snow Light Snow
10:55 AM 11.8 °F 0.3 °F 6.4 °F 79% 30.33 in 1.5 mi NNW 8.1 mph - N/A Snow Light Snow
11:15 AM 11.8 °F 2.5 °F 5.9 °F 77% 30.33 in 1.5 mi NW 5.8 mph 17.3 mph N/A Snow Light Snow
11:34 AM 11.8 °F -1.5 °F 4.1 °F 71% 30.33 in 4.0 mi NW 10.4 mph 17.3 mph N/A Snow Light Snow
11:55 AM 11.8 °F -3.0 °F 5.9 °F 77% 30.33 in 2.0 mi NW 12.7 mph 16.1 mph N/A Snow Light Snow
12:15 PM 11.8 °F 0.3 °F 6.4 °F 79% 30.32 in 1.2 mi NNW 8.1 mph - N/A Snow Light Snow
12:35 PM 11.8 °F -1.5 °F 5.2 °F 75% 30.32 in 4.0 mi WNW 10.4 mph - N/A Snow Light Snow
12:55 PM 11.8 °F -0.7 °F 5.4 °F 75% 30.32 in 2.5 mi NW 9.2 mph 17.3 mph N/A Snow Light Snow
1:15 PM 11.8 °F -2.3 °F 5.5 °F 76% 30.32 in 2.5 mi WNW 11.5 mph - N/A Snow Light Snow
1:35 PM 11.8 °F -0.7 °F 4.8 °F 73% 30.32 in 1.8 mi NNW 9.2 mph - N/A Snow Light Snow
1:55 PM 11.8 °F -3.0 °F 3.7 °F 70% 30.32 in 7.0 mi NW 12.7 mph 17.3 mph N/A Snow Light Snow
2:15 PM 11.8 °F -0.7 °F 4.1 °F 71% 30.32 in 7.0 mi WNW 9.2 mph - N/A Snow Light Snow
2:35 PM 11.8 °F -2.3 °F 4.1 °F 71% 30.33 in 4.0 mi NW 11.5 mph 19.6 mph N/A Snow Light Snow
2:55 PM 11.8 °F 0.3 °F 3.7 °F 70% 30.33 in 5.0 mi NW 8.1 mph 17.3 mph N/A Snow Light Snow
3:15 PM 11.8 °F -0.7 °F 3.9 °F 71% 30.34 in 5.0 mi NNW 9.2 mph - N/A Snow Light Snow
3:35 PM 11.8 °F 0.3 °F 2.5 °F 66% 30.34 in 10.0 mi NNW 8.1 mph 17.3 mph N/A   Overcast
3:55 PM 11.8 °F 0.3 °F 3.2 °F 68% 30.35 in 7.0 mi NW 8.1 mph 16.1 mph N/A Snow Light Snow
4:15 PM 11.8 °F -1.5 °F 4.6 °F 73% 30.35 in 2.5 mi NW 10.4 mph - N/A Snow Light Snow
4:35 PM 11.8 °F 2.5 °F 3.7 °F 70% 30.35 in 7.0 mi NW 5.8 mph - N/A Snow Light Snow
4:55 PM 10.9 °F -0.8 °F 3.6 °F 72% 30.36 in 3.0 mi WNW 8.1 mph 17.3 mph N/A Snow Light Snow
5:14 PM 11.3 °F -0.4 °F 3.4 °F 70% 30.36 in 5.0 mi WNW 8.1 mph - N/A Snow Light Snow
5:35 PM 11.1 °F -0.6 °F 3.2 °F 70% 30.37 in 7.0 mi WNW 8.1 mph 16.1 mph N/A Snow Light Snow
5:55 PM 10.4 °F -3.3 °F 2.1 °F 69% 30.38 in 10.0 mi NW 10.4 mph - N/A   Overcast
6:14 PM 11.8 °F 2.5 °F 3.2 °F 68% 30.39 in 10.0 mi WNW 5.8 mph - N/A   Overcast
6:35 PM 11.8 °F -0.7 °F 3.4 °F 69% 30.39 in 10.0 mi WNW 9.2 mph - N/A   Overcast
6:55 PM 11.8 °F -1.5 °F 3.9 °F 71% 30.40 in 10.0 mi WNW 10.4 mph 19.6 mph N/A   Overcast
7:14 PM 11.8 °F 0.3 °F 2.8 °F 67% 30.40 in 10.0 mi WNW 8.1 mph 18.4 mph N/A   Overcast
7:35 PM 11.8 °F -0.7 °F 3.4 °F 69% 30.40 in 10.0 mi NW 9.2 mph - N/A   Overcast
7:55 PM 10.9 °F -1.8 °F 3.4 °F 72% 30.40 in 10.0 mi WNW 9.2 mph - N/A   Overcast
8:14 PM 10.4 °F -1.5 °F 2.8 °F 72% 30.41 in 10.0 mi WNW 8.1 mph - N/A   Overcast
8:35 PM 10.4 °F -0.4 °F 3.0 °F 72% 30.41 in 10.0 mi NW 6.9 mph - N/A   Overcast
8:55 PM 10.4 °F -1.5 °F 2.8 °F 72% 30.41 in 10.0 mi WNW 8.1 mph 17.3 mph N/A   Overcast
9:14 PM 10.4 °F -4.1 °F 3.0 °F 72% 30.40 in 10.0 mi WNW 11.5 mph - N/A   Overcast
9:35 PM 10.4 °F -0.4 °F 3.7 °F 74% 30.40 in 7.0 mi West 6.9 mph - N/A Snow Light Snow
9:55 PM 10.4 °F -2.4 °F 3.6 °F 74% 30.41 in 7.0 mi West 9.2 mph - N/A Snow Light Snow
10:15 PM 10.4 °F -0.4 °F 3.9 °F 75% 30.41 in 5.0 mi WNW 6.9 mph - N/A Snow Light Snow
10:35 PM 9.5 °F -2.6 °F 2.3 °F 73% 30.41 in 10.0 mi WNW 8.1 mph - N/A   Overcast
10:55 PM 9.3 °F -4.6 °F 2.1 °F 73% 30.42 in 7.0 mi WNW 10.4 mph - N/A Snow Light Snow
11:15 PM 9.3 °F -0.5 °F 2.3 °F 73% 30.42 in 7.0 mi WNW 5.8 mph - N/A Snow Light Snow
11:35 PM 9.3 °F -3.8 °F 2.3 °F 73% 30.41 in 10.0 mi WNW 9.2 mph - N/A   Overcast
11:55 PM 9.3 °F -4.6 °F 1.9 °F 72% 30.42 in 10.0 mi WNW 10.4 mph 16.1 mph N/A   Overcast